Weather History for KOTM - November, 2010

Change the Weather History Date:

Thursday, November 18, 2010

  Actual Average Record
Temperature  
Mean Temperature 32 °F 38 °F  
Max Temperature 37 °F 47 °F 75 °F (1999)
Min Temperature 27 °F 29 °F 4 °F (2014)
Degree Days  
Heating Degree Days 33 27  
Month to date heating degree days 360 406  
Since 1 July heating degree days 754 930  
Cooling Degree Days 0 0  
Month to date cooling degree days 0 0  
Year to date cooling degree days 1105 938  
Moisture  
Dew Point 27 °F    
Average Humidity 78    
Maximum Humidity 92    
Minimum Humidity 64    
Precipitation  
Precipitation 0.00 in 0.08 in 1.50 in (1900)
Month to date precipitation 0.53 1.53  
Year to date precipitation 50.65 34.85  
Sea Level Pressure  
Sea Level Pressure 30.32 in    
Wind  
Wind Speed 7 mph (WSW)    
Max Wind Speed 15 mph    
Max Gust Speed 20 mph    
Visibility 10 miles    
Events      
T = Trace of Precipitation, MM = Missing Value Source: NWS Daily Summary

Daily Weather History Graph

Daily Weather History Graph

Search for Another Location

Airport or City:

Trip Planner

Search our weather history database for the weather conditions in past years. The results will help you decide how hot, cold, wet, or windy it might be!

Date:

Astronomy

Nov. 18, 2010 Rise Set
Actual Time 7:01 AM CST 4:48 PM CST
Civil Twilight 6:31 AM CST 5:18 PM CST
Nautical Twilight 5:57 AM CST 5:51 PM CST
Astronomical Twilight 5:25 AM CST 6:24 PM CST
Moon 2:49 PM CST (11/18) 3:57 AM CST (11/18)
Length of Visible Light 10h 46m
Length of Day
9h 47m
Waxing Gibbous, 91% of the Moon is Illuminated
Nov 18
Waxing Gibbous
Nov 21
Full
Nov 28
Last Quarter
Dec 5
New
Dec 13
First Quarter

Hourly Weather History & Observations

Time (CST) Temp. Windchill Dew Point Humidity Pressure Visibility Wind Dir Wind Speed Gust Speed Precip Events Conditions
12:22 AM 32.0 °F 23.0 °F 28.4 °F 87% 30.30 in 9.0 mi NW 11.5 mph - N/A   Mostly Cloudy
12:37 AM 30.2 °F 20.8 °F 26.6 °F 86% 30.30 in 9.0 mi NW 11.5 mph - N/A   Mostly Cloudy
12:53 AM 30.0 °F 21.1 °F 26.1 °F 85% 30.32 in 9.0 mi NW 10.4 mph - N/A   Scattered Clouds
1:53 AM 28.0 °F 19.3 °F 26.1 °F 92% 30.32 in 8.0 mi NW 9.2 mph - N/A   Clear
2:53 AM 28.0 °F 19.3 °F 26.1 °F 92% 30.33 in 8.0 mi NNW 9.2 mph - N/A   Clear
3:53 AM 30.9 °F 24.3 °F 28.9 °F 92% 30.35 in 8.0 mi NNW 6.9 mph - N/A   Overcast
4:53 AM 32.0 °F 24.2 °F 30.0 °F 92% 30.36 in 8.0 mi NW 9.2 mph - N/A   Overcast
5:15 AM 32.0 °F 25.6 °F 30.2 °F 93% 30.33 in 8.0 mi NW 6.9 mph - N/A   Overcast
5:53 AM 33.1 °F 25.5 °F 30.0 °F 89% 30.36 in 9.0 mi NNW 9.2 mph - N/A   Overcast
6:53 AM 32.0 °F 24.8 °F 28.9 °F 88% 30.36 in 10.0 mi NNW 8.1 mph - N/A   Overcast
7:53 AM 33.1 °F 28.7 °F 27.0 °F 78% 30.39 in 10.0 mi NW 4.6 mph - N/A   Overcast
8:53 AM 33.1 °F 26.1 °F 26.1 °F 75% 30.41 in 10.0 mi NW 8.1 mph - N/A   Overcast
9:53 AM 33.1 °F 27.7 °F 25.0 °F 72% 30.43 in 10.0 mi WNW 5.8 mph - N/A   Overcast
10:53 AM 34.0 °F 28.8 °F 25.0 °F 70% 30.42 in 10.0 mi NNE 5.8 mph - N/A   Overcast
11:53 AM 34.0 °F - 25.0 °F 70% 30.40 in 10.0 mi Calm Calm - N/A   Overcast
12:53 PM 35.1 °F - 25.0 °F 67% 30.37 in 9.0 mi Calm Calm - N/A   Overcast
1:53 PM 35.6 °F 31.7 °F 24.8 °F 65% 30.33 in 7.0 mi West 4.6 mph - N/A   Mostly Cloudy
2:24 PM 35.6 °F 31.7 °F 26.6 °F 70% 30.31 in 10.0 mi South 4.6 mph - N/A   Scattered Clouds
2:50 PM 35.6 °F 30.7 °F 26.6 °F 70% 30.31 in 10.0 mi SSW 5.8 mph - N/A   Mostly Cloudy
2:53 PM 35.1 °F 29.3 °F 26.1 °F 70% 30.34 in 10.0 mi South 6.9 mph - N/A   Mostly Cloudy
3:00 PM 35.6 °F - 26.6 °F 70% 30.31 in 10.0 mi Calm Calm - N/A   Scattered Clouds
3:15 PM 35.6 °F 30.7 °F 26.6 °F 70% 30.31 in 10.0 mi SSW 5.8 mph - N/A   Mostly Cloudy
3:22 PM 35.6 °F 29.9 °F 26.6 °F 70% 30.31 in 10.0 mi SSW 6.9 mph - N/A   Scattered Clouds
3:31 PM 35.6 °F 30.7 °F 26.6 °F 70% 30.30 in 10.0 mi South 5.8 mph - N/A   Mostly Cloudy
3:53 PM 35.1 °F 31.0 °F 26.1 °F 70% 30.32 in 9.0 mi South 4.6 mph - N/A   Mostly Cloudy
4:07 PM 35.6 °F 31.7 °F 26.6 °F 70% 30.29 in 10.0 mi South 4.6 mph - N/A   Scattered Clouds
4:53 PM 33.1 °F 26.1 °F 27.0 °F 78% 30.30 in 10.0 mi South 8.1 mph - N/A   Partly Cloudy
5:24 PM 32.0 °F 28.7 °F 26.6 °F 80% 30.27 in 10.0 mi South 3.5 mph - N/A   Mostly Cloudy
5:53 PM 32.0 °F - 26.1 °F 79% 30.30 in 10.0 mi Calm Calm - N/A   Scattered Clouds
6:53 PM 27.0 °F 19.5 °F 24.1 °F 89% 30.28 in 10.0 mi SE 6.9 mph - N/A   Clear
7:53 PM 30.9 °F 24.3 °F 26.1 °F 82% 30.26 in 10.0 mi SSE 6.9 mph - N/A   Clear
8:53 PM 30.9 °F 22.2 °F 27.0 °F 85% 30.24 in 10.0 mi SSE 10.4 mph - N/A   Clear
9:53 PM 30.9 °F 23.5 °F 26.1 °F 82% 30.24 in 10.0 mi South 8.1 mph - N/A   Clear
10:53 PM 30.9 °F 20.7 °F 26.1 °F 82% 30.21 in 10.0 mi SSE 13.8 mph - N/A   Clear
11:53 PM 30.0 °F 19.5 °F 27.0 °F 88% 30.19 in 10.0 mi South 13.8 mph - N/A   Clear